Year,Month,Day,Hour,Minute,Value (Times are PST for temperature in C)
2017,02,19,09,16,5.30
2017,02,19,09,17,5.30
2017,02,19,09,18,5.40
2017,02,19,09,19,5.40
2017,02,19,09,20,5.40
2017,02,19,09,21,5.40
2017,02,19,09,22,5.40
2017,02,19,09,23,5.50
2017,02,19,09,24,5.50
2017,02,19,09,25,5.50
2017,02,19,09,26,5.50
2017,02,19,09,27,5.60
2017,02,19,09,28,5.60
2017,02,19,09,29,5.60
2017,02,19,09,30,5.60
2017,02,19,09,31,5.60
2017,02,19,09,32,5.60
2017,02,19,09,33,5.70
2017,02,19,09,34,5.70
2017,02,19,09,35,5.70
2017,02,19,09,36,5.70
2017,02,19,09,37,5.70
2017,02,19,09,38,5.70
2017,02,19,09,39,5.70
2017,02,19,09,40,5.80
2017,02,19,09,41,5.80
2017,02,19,09,42,5.80
2017,02,19,09,43,5.80
2017,02,19,09,44,5.80
2017,02,19,09,45,5.80
2017,02,19,09,46,5.80
2017,02,19,09,47,5.80
2017,02,19,09,48,5.80
2017,02,19,09,49,5.90
2017,02,19,09,50,5.90
2017,02,19,09,51,5.90
2017,02,19,09,52,5.90
2017,02,19,09,53,5.90
2017,02,19,09,54,5.90
2017,02,19,09,55,6.00
2017,02,19,09,56,6.00
2017,02,19,09,57,6.00
2017,02,19,09,58,6.10
2017,02,19,09,59,6.10
2017,02,19,10,00,6.20
2017,02,19,10,01,6.20
2017,02,19,10,02,6.30
2017,02,19,10,03,6.30
2017,02,19,10,04,6.40
2017,02,19,10,05,6.40
2017,02,19,10,06,6.50
2017,02,19,10,07,6.50
2017,02,19,10,08,6.60
2017,02,19,10,09,6.60
2017,02,19,10,10,6.70
2017,02,19,10,11,6.70
2017,02,19,10,12,6.70
2017,02,19,10,13,6.70
2017,02,19,10,14,6.80
2017,02,19,10,15,6.80
2017,02,19,10,16,6.70
2017,02,19,10,17,6.70
2017,02,19,10,18,6.70
2017,02,19,10,19,6.70
2017,02,19,10,20,6.70
2017,02,19,10,21,6.70
2017,02,19,10,22,6.70
2017,02,19,10,23,6.70
2017,02,19,10,24,6.70
2017,02,19,10,25,6.70
2017,02,19,10,26,6.70
2017,02,19,10,27,6.70
2017,02,19,10,28,6.70
2017,02,19,10,29,6.70
2017,02,19,10,30,6.70
2017,02,19,10,31,6.70
2017,02,19,10,32,6.70
2017,02,19,10,33,6.70
2017,02,19,10,34,6.70
2017,02,19,10,35,6.70
2017,02,19,10,36,6.60
2017,02,19,10,37,6.60
2017,02,19,10,38,6.60
2017,02,19,10,39,6.60
2017,02,19,10,40,6.60
2017,02,19,10,41,6.60
2017,02,19,10,42,6.60
2017,02,19,10,43,6.60
2017,02,19,10,44,6.60
2017,02,19,10,45,6.60
2017,02,19,10,46,6.60
2017,02,19,10,47,6.60
2017,02,19,10,48,6.50
2017,02,19,10,49,6.60
2017,02,19,10,50,6.60
2017,02,19,10,51,6.60
2017,02,19,10,52,6.50
2017,02,19,10,53,6.50
2017,02,19,10,54,6.50
2017,02,19,10,55,6.50
2017,02,19,10,56,6.50
2017,02,19,10,57,6.50
2017,02,19,10,58,6.50
2017,02,19,10,59,6.50
2017,02,19,11,00,6.40
2017,02,19,11,01,6.40
2017,02,19,11,02,6.40
2017,02,19,11,03,6.50
2017,02,19,11,04,6.50
2017,02,19,11,05,6.60
2017,02,19,11,06,6.60
2017,02,19,11,07,6.60
2017,02,19,11,08,6.60
2017,02,19,11,09,6.60
2017,02,19,11,10,6.60
2017,02,19,11,11,6.70
2017,02,19,11,12,6.70
2017,02,19,11,13,6.70
2017,02,19,11,14,6.70
2017,02,19,11,15,6.70
2017,02,19,11,16,6.70
2017,02,19,11,17,6.70
2017,02,19,11,18,6.60
2017,02,19,11,19,6.60
2017,02,19,11,20,6.60
2017,02,19,11,21,6.60
2017,02,19,11,22,6.60
2017,02,19,11,23,6.60
2017,02,19,11,24,6.60
2017,02,19,11,25,6.60
2017,02,19,11,26,6.60
2017,02,19,11,27,6.70
2017,02,19,11,28,6.70
2017,02,19,11,29,6.70
2017,02,19,11,30,6.70
2017,02,19,11,31,6.80
2017,02,19,11,32,6.80
2017,02,19,11,33,6.90
2017,02,19,11,34,7.00
2017,02,19,11,35,7.00
2017,02,19,11,36,7.10
2017,02,19,11,37,7.10
2017,02,19,11,38,7.20
2017,02,19,11,39,7.20
2017,02,19,11,40,7.20
2017,02,19,11,41,7.10
2017,02,19,11,42,7.10
2017,02,19,11,43,7.10
2017,02,19,11,44,7.10
2017,02,19,11,45,7.10
2017,02,19,11,46,7.10
2017,02,19,11,47,7.00
2017,02,19,11,48,7.00
2017,02,19,11,49,7.00
2017,02,19,11,50,7.10
2017,02,19,11,51,7.10
2017,02,19,11,52,7.10
2017,02,19,11,53,7.20
2017,02,19,11,54,7.20
2017,02,19,11,55,7.30
2017,02,19,11,56,7.30
2017,02,19,11,57,7.40
2017,02,19,11,58,7.40
2017,02,19,11,59,7.50
2017,02,19,12,00,7.50
2017,02,19,12,01,7.50
2017,02,19,12,02,7.50
2017,02,19,12,03,7.50
2017,02,19,12,04,7.50
2017,02,19,12,05,7.50
2017,02,19,12,06,7.40
2017,02,19,12,07,7.40
2017,02,19,12,08,7.30
2017,02,19,12,09,7.30
2017,02,19,12,10,7.20
2017,02,19,12,11,7.20
2017,02,19,12,12,7.20
2017,02,19,12,13,7.20
2017,02,19,12,14,7.20
2017,02,19,12,15,7.20
2017,02,19,12,16,7.20
2017,02,19,12,17,7.20
2017,02,19,12,18,7.30
2017,02,19,12,19,7.30
2017,02,19,12,20,7.30
2017,02,19,12,21,7.30
2017,02,19,12,22,7.30
2017,02,19,12,23,7.30
2017,02,19,12,24,7.40
2017,02,19,12,25,7.50
2017,02,19,12,26,7.50
2017,02,19,12,27,7.60
2017,02,19,12,28,7.60
2017,02,19,12,29,7.70
2017,02,19,12,30,7.70
2017,02,19,12,31,7.80
2017,02,19,12,32,7.90
2017,02,19,12,33,7.90
2017,02,19,12,34,7.90
2017,02,19,12,35,7.90
2017,02,19,12,36,7.90
2017,02,19,12,37,7.90
2017,02,19,12,38,7.90
2017,02,19,12,39,7.90
2017,02,19,12,40,7.90
2017,02,19,12,41,7.90
2017,02,19,12,42,7.90
2017,02,19,12,43,7.90
2017,02,19,12,44,7.90
2017,02,19,12,45,7.90
2017,02,19,12,46,7.90
2017,02,19,12,47,7.90
2017,02,19,12,48,7.90
2017,02,19,12,49,7.90
2017,02,19,12,50,7.90
2017,02,19,12,51,7.90
2017,02,19,12,52,7.90
2017,02,19,12,53,7.90
2017,02,19,12,54,8.00
2017,02,19,12,55,8.00
2017,02,19,12,56,8.10
2017,02,19,12,57,8.20
2017,02,19,12,58,8.20
2017,02,19,12,59,8.30
2017,02,19,13,00,8.30
2017,02,19,13,01,8.40
2017,02,19,13,02,8.40
2017,02,19,13,03,8.50
2017,02,19,13,04,8.50
2017,02,19,13,05,8.60
2017,02,19,13,06,8.60
2017,02,19,13,07,8.70
2017,02,19,13,08,8.80
2017,02,19,13,09,8.90
2017,02,19,13,10,8.90
2017,02,19,13,11,8.90
2017,02,19,13,12,9.00
2017,02,19,13,13,9.00
2017,02,19,13,14,9.00
2017,02,19,13,15,9.10
2017,02,19,13,16,9.10
2017,02,19,13,17,9.10
2017,02,19,13,18,9.10
2017,02,19,13,19,9.10
2017,02,19,13,20,9.10
2017,02,19,13,21,9.10
2017,02,19,13,22,9.10
2017,02,19,13,23,9.10
2017,02,19,13,24,9.00
2017,02,19,13,25,9.00
2017,02,19,13,26,9.00
2017,02,19,13,27,8.90
2017,02,19,13,28,8.90
2017,02,19,13,29,8.80
2017,02,19,13,30,8.80
2017,02,19,13,31,8.80
2017,02,19,13,32,8.80
2017,02,19,13,33,8.80
2017,02,19,13,34,8.70
2017,02,19,13,35,8.70
2017,02,19,13,36,8.70
2017,02,19,13,37,8.70
2017,02,19,13,38,8.80
2017,02,19,13,39,8.80
2017,02,19,13,40,8.80
2017,02,19,13,41,8.80
2017,02,19,13,42,8.80
2017,02,19,13,43,8.70
2017,02,19,13,44,8.70
2017,02,19,13,45,8.60
2017,02,19,13,46,8.60
2017,02,19,13,47,8.60
2017,02,19,13,48,8.50
2017,02,19,13,49,8.50
2017,02,19,13,50,8.50
2017,02,19,13,51,8.50
2017,02,19,13,52,8.60
2017,02,19,13,53,8.60
2017,02,19,13,54,8.60
2017,02,19,13,55,8.60
2017,02,19,13,56,8.70
2017,02,19,13,57,8.70
2017,02,19,13,58,8.70
2017,02,19,13,59,8.70
2017,02,19,14,00,8.70
2017,02,19,14,01,8.80
2017,02,19,14,02,8.80
2017,02,19,14,03,8.90
2017,02,19,14,04,8.90
2017,02,19,14,05,8.90
2017,02,19,14,06,8.90
2017,02,19,14,07,8.90
2017,02,19,14,08,8.80
2017,02,19,14,09,8.90
2017,02,19,14,10,8.90
2017,02,19,14,11,8.90
2017,02,19,14,12,8.90
2017,02,19,14,13,8.90
2017,02,19,14,14,8.90
2017,02,19,14,15,8.80
2017,02,19,14,16,8.80
2017,02,19,14,17,8.80
2017,02,19,14,18,8.70
2017,02,19,14,19,8.70
2017,02,19,14,20,8.70
2017,02,19,14,21,8.70
2017,02,19,14,22,8.60
2017,02,19,14,23,8.60
2017,02,19,14,24,8.60
2017,02,19,14,25,8.60
2017,02,19,14,26,8.50
2017,02,19,14,27,8.50
2017,02,19,14,28,8.50
2017,02,19,14,29,8.50
2017,02,19,14,30,8.50
2017,02,19,14,31,8.50
2017,02,19,14,32,8.60
2017,02,19,14,33,8.60
2017,02,19,14,34,8.60
2017,02,19,14,35,8.60
2017,02,19,14,36,8.60
2017,02,19,14,37,8.70
2017,02,19,14,38,8.70
2017,02,19,14,39,8.70
2017,02,19,14,40,8.70
2017,02,19,14,41,8.80
2017,02,19,14,42,8.80
2017,02,19,14,43,8.80
2017,02,19,14,44,8.80
2017,02,19,14,45,8.80
2017,02,19,14,46,8.80
2017,02,19,14,47,8.80
2017,02,19,14,48,8.80
2017,02,19,14,49,8.80
2017,02,19,14,50,8.80
2017,02,19,14,51,8.80
2017,02,19,14,52,8.80
2017,02,19,14,53,8.80
2017,02,19,14,54,8.80
2017,02,19,14,55,8.80
2017,02,19,14,56,8.80
2017,02,19,14,57,8.70
2017,02,19,14,58,8.70
2017,02,19,14,59,8.70
2017,02,19,15,00,8.70
2017,02,19,15,01,8.70
2017,02,19,15,02,8.70
2017,02,19,15,03,8.70
2017,02,19,15,04,8.70
2017,02,19,15,05,8.70
2017,02,19,15,06,8.70
2017,02,19,15,07,8.70
2017,02,19,15,08,8.70
2017,02,19,15,09,8.70
2017,02,19,15,10,8.70
2017,02,19,15,11,8.70
2017,02,19,15,12,8.70
2017,02,19,15,13,8.70
2017,02,19,15,14,8.70
2017,02,19,15,15,8.70
2017,02,19,15,16,8.60
2017,02,19,15,17,8.60
2017,02,19,15,18,8.60
2017,02,19,15,19,8.60
2017,02,19,15,20,8.60
2017,02,19,15,21,8.60
2017,02,19,15,22,8.50
2017,02,19,15,23,8.40
2017,02,19,15,24,8.40
2017,02,19,15,25,8.40
2017,02,19,15,26,8.40
2017,02,19,15,27,8.40
2017,02,19,15,28,8.40
2017,02,19,15,29,8.30
2017,02,19,15,30,8.30
2017,02,19,15,31,8.30
2017,02,19,15,32,8.30
2017,02,19,15,33,8.30
2017,02,19,15,34,8.30
2017,02,19,15,35,8.30
2017,02,19,15,36,8.30
2017,02,19,15,37,8.30
2017,02,19,15,38,8.30
2017,02,19,15,39,8.30
2017,02,19,15,40,8.30
2017,02,19,15,41,8.30
2017,02,19,15,42,8.30
2017,02,19,15,43,8.30
2017,02,19,15,44,8.30
2017,02,19,15,45,8.20
2017,02,19,15,46,8.20
2017,02,19,15,47,8.20
2017,02,19,15,48,8.20
2017,02,19,15,49,8.20
2017,02,19,15,50,8.20
2017,02,19,15,51,8.20
2017,02,19,15,52,8.20
2017,02,19,15,53,8.20
2017,02,19,15,54,8.20
2017,02,19,15,55,8.20
2017,02,19,15,56,8.20
2017,02,19,15,57,8.20
2017,02,19,15,58,8.20
2017,02,19,15,59,8.20
2017,02,19,16,00,8.20
